This demonstration page uses our WeatherBlox Daily Observations layout. Learn more.

Left ArrowRight Arrow

Hourly Observations for August 31, 2017

Temp ( °F °C ) Dew Point ( °F °C ) Humidity (%) Winds ( mph kmh ) Pressure ( in mb ) Visibility ( mi km ) Precip ( " mm )
12:15 am 00:15 Clear 59 15.2 59 14.9 98 98 Calm 30.06 1018 10 16 0.00 0.00
12:35 am 00:35 Clear 58 14.7 58 14.5 99 99 Calm 30.06 1018 7 11 0.00 0.00
12:55 am 00:55 Clear 59 15.1 59 15 99 99 Calm 30.06 1018 10 16 0.00 0.00
1:15 am 01:15 Clear 58 14.7 58 14.5 99 99 Calm 30.06 1018 7 11 0.00 0.00
1:35 am 01:35 Clear 58 14.5 58 14.3 99 99 Calm 30.06 1018 7 11 0.00 0.00
1:55 am 01:55 Clear with Mist and Fog 58 14.5 58 14.4 99 99 Calm 30.06 1018 5 8 0.00 0.00
2:15 am 02:15 Clear 57 13.9 57 13.8 99 99 Calm 30.06 1018 7 11 0.00 0.00
2:35 am 02:35 Clear 57 13.9 57 13.7 99 99 Calm 30.06 1018 7 11 0.00 0.00
2:55 am 02:55 Clear with Mist and Fog 56 13.5 56 13.3 99 99 Calm 30.06 1018 4 6 0.00 0.00
3:15 am 03:15 Clear with Mist and Fog 55 13 55 12.9 99 99 Calm 30.09 1019 4 6 0.00 0.00
3:35 am 03:35 Clear with Mist and Fog 56 13.2 56 13.2 100 100 Calm 30.06 1018 4 6 0.00 0.00
3:55 am 03:55 Clear with Mist and Fog 56 13.3 56 13.3 100 100 Calm 30.06 1018 5 8 0.00 0.00
4:15 am 04:15 Clear with Mist and Fog 56 13.2 56 13.2 100 100 Calm 30.06 1018 4 6 0.00 0.00
4:35 am 04:35 Clear 55 12.5 54 12.4 99 99 Calm 30.09 1019 7 11 0.00 0.00
4:55 am 04:55 Clear 55 12.6 55 12.6 100 100 Calm 30.09 1019 10 16 0.00 0.00
5:15 am 05:15 Clear with Mist and Fog 54 12.3 54 12.3 100 100 NNW 3 6 30.09 1019 5 8 0.00 0.00
5:35 am 05:35 Clear with Mist and Fog 54 12.4 54 12.4 100 100 Calm 30.09 1019 5 8 0.00 0.00
5:55 am 05:55 Clear 54 12.4 54 12.4 100 100 Calm 30.09 1019 7 11 0.00 0.00
6:15 am 06:15 Clear with Mist and Fog 54 12.2 54 12.2 100 100 Calm 30.09 1019 5 8 0.00 0.00
6:35 am 06:35 Clear with Mist and Fog 54 12.3 54 12.3 100 100 Calm 30.09 1019 5 8 0.00 0.00
6:55 am 06:55 Partly Cloudy 55 12.5 55 12.5 100 100 Calm 30.09 1019 10 16 0.00 0.00
7:15 am 07:15 Mostly Cloudy 56 13.1 55 13 99 99 NW 5 7 30.12 1020 7 11 0.00 0.00
7:35 am 07:35 Mostly Cloudy with Mist and Fog 56 13.6 56 13.5 99 99 NNW 3 6 30.09 1019 5 8 0.00 0.00
7:55 am 07:55 Partly Cloudy 57 14 57 13.7 98 98 Calm 30.09 1019 7 11 0.00 0.00
8:15 am 08:15 Sunny 58 14.4 57 14.1 98 98 Calm 30.09 1019 7 11 0.00 0.00
8:35 am 08:35 Partly Cloudy 59 14.8 58 14.4 97 97 Calm 30.09 1019 7 11 0.00 0.00
8:55 am 08:55 Partly Cloudy 60 15.8 59 14.9 94 94 Calm 30.09 1019 10 16 0.00 0.00
9:15 am 09:15 Partly Cloudy 62 16.4 60 15.4 94 94 Calm 30.09 1019 7 11 0.00 0.00
9:35 am 09:35 Sunny 64 17.5 60 15.4 88 88 Calm 30.09 1019 10 16 0.00 0.00
9:55 am 09:55 Sunny 64 17.9 59 15.2 84 84 NE 5 7 30.09 1019 10 16 0.00 0.00
10:15 am 10:15 Sunny 65 18.3 60 15.4 83 83 NE 5 7 30.09 1019 10 16 0.00 0.00
10:35 am 10:35 Sunny 67 19.3 60 15.7 80 80 E 6 9 30.09 1019 10 16 0.00 0.00
10:55 am 10:55 Sunny 67 19.6 60 15.4 77 77 ENE 5 7 30.09 1019 10 16 0.00 0.00
11:15 am 11:15 Sunny 68 20 60 15.5 75 75 ENE 5 7 30.09 1019 10 16 0.00 0.00
11:35 am 11:35 Sunny 69 20.4 61 16 76 76 E 5 7 30.09 1019 10 16 0.00 0.00
11:55 am 11:55 Sunny 70 20.9 61 15.9 73 73 E 5 7 30.09 1019 10 16 0.00 0.00
12:15 pm 12:15 Sunny 71 21.6 60 15.7 69 69 E 6 9 30.09 1019 10 16 0.00 0.00
12:35 pm 12:35 Sunny 71 21.9 60 15.6 68 68 ENE 6 9 30.09 1019 10 16 0.00 0.00
12:55 pm 12:55 Sunny 73 22.5 62 16.4 69 69 E 3 6 30.06 1018 10 16 0.00 0.00
1:15 pm 13:15 Sunny 73 22.6 62 16.4 68 68 ENE 3 6 30.03 1017 10 16 0.00 0.00
1:35 pm 13:35 Sunny 74 23.2 62 16.6 67 67 ENE 5 7 30.03 1017 10 16 0.00 0.00
1:55 pm 13:55 Sunny 74 23.3 62 16.6 66 66 NNE 5 7 30.03 1017 10 16 0.00 0.00
2:15 pm 14:15 Sunny 74 23.4 62 16.5 65 65 NE 7 11 30.03 1017 10 16 0.00 0.00
2:35 pm 14:35 Partly Cloudy 74 23.5 62 16.6 65 65 NNE 7 11 30.03 1017 10 16 0.00 0.00
2:55 pm 14:55 Mostly Cloudy 74 23.1 62 16.6 67 67 ENE 7 11 30.03 1017 10 16 0.00 0.00
3:15 pm 15:15 Mostly Cloudy 74 23.1 64 17.5 71 71 NNE 5 7 30.03 1017 10 16 0.00 0.00
3:35 pm 15:35 Cloudy 74 23.1 62 16.7 67 67 NNE 6 9 30.03 1017 10 16 0.00 0.00
3:55 pm 15:55 Mostly Cloudy 75 23.7 62 16.6 65 65 NE 8 13 30.03 1017 10 16 0.00 0.00
4:15 pm 16:15 Mostly Cloudy 75 24.1 63 17.3 66 66 NE 8 13 30.03 1017 10 16 0.00 0.00
4:35 pm 16:35 Cloudy 74 23.5 63 17.3 68 68 NE 10 17 30.03 1017 10 16 0.00 0.00
4:55 pm 16:55 Mostly Cloudy 74 23.4 63 17 67 67 NE 6 9 30.03 1017 10 16 0.00 0.00
5:15 pm 17:15 Mostly Cloudy 73 23 63 17.4 71 71 NE 8 13 30.03 1017 10 16 0.00 0.00
5:35 pm 17:35 Mostly Cloudy 73 22.5 62 16.8 70 70 NE 8 13 30.03 1017 10 16 0.00 0.00
5:55 pm 17:55 Cloudy 73 22.6 63 17 71 71 NE 14 22 30.03 1017 10 16 0.00 0.00
6:15 pm 18:15 Mostly Cloudy 72 22 63 17.4 75 75 NE 9 15 30.03 1017 10 16 0.00 0.00
6:35 pm 18:35 Partly Cloudy 71 21.9 62 16.9 73 73 NE 8 13 30.03 1017 10 16 0.00 0.00
6:55 pm 18:55 Sunny 71 21.4 62 16.9 76 76 NE 9 15 30.06 1018 10 16 0.00 0.00
7:15 pm 19:15 Sunny 70 21 63 17 78 78 NE 12 19 30.06 1018 10 16 0.00 0.00
7:35 pm 19:35 Sunny 69 20.4 63 17.1 81 81 NE 9 15 30.06 1018 10 16 0.00 0.00
8:15 pm 20:15 Sunny 66 19.1 61 16.2 83 83 NE 13 20 30.06 1018 10 16 0.00 0.00
8:35 pm 20:35 Clear 66 18.8 61 16.3 85 85 NE 12 19 30.06 1018 10 16 0.00 0.00
8:55 pm 20:55 Partly Cloudy 65 18.3 61 16.1 87 87 NE 9 15 30.06 1018 10 16 0.00 0.00
9:15 pm 21:15 Clear 65 18.1 60 15.5 85 85 NE 9 15 30.06 1018 10 16 0.00 0.00
9:35 pm 21:35 Clear 64 17.7 59 15.1 85 85 ENE 12 19 30.06 1018 10 16 0.00 0.00
9:55 pm 21:55 Clear 64 17.7 59 15 84 84 ENE 12 19 30.06 1018 10 16 0.00 0.00
10:15 pm 22:15 Clear 64 17.5 58 14.6 83 83 ENE 13 20 30.06 1018 10 16 0.00 0.00
10:35 pm 22:35 Clear 63 17.4 57 13.8 80 80 ENE 12 19 30.06 1018 10 16 0.00 0.00
10:55 pm 22:55 Clear 63 17.1 56 13.3 78 78 ENE 10 17 30.06 1018 10 16 0.00 0.00
11:15 pm 23:15 Clear 63 17 55 12.8 76 76 ENE 10 17 30.06 1018 10 16 0.00 0.00
11:35 pm 23:35 Clear 62 16.6 55 12.5 77 77 E 9 15 30.06 1018 10 16 0.00 0.00
11:55 pm 23:55 Clear 61 16.3 54 12.3 77 77 E 10 17 30.06 1018 10 16 0.00 0.00

Powered by AerisWeather